Location: Unspecified
(0.0000°N, 0.0000°E)
Time: 01:29:57
(UTC+00:00)

Courier 1B - Pass Details

Date: 20 November 2019
Orbit: 963 x 1209 km, 28.3° (Epoch: 11 December)

Event Time Altitude Azimuth Distance (km) Brightness Sun altitude
Rises 16:44:29 0° 246° (WSW) 3,804 12.6 14.4°
Reaches altitude 10° 16:50:16 10° 209° (SSW) 2,929 10.9 13.0°
Maximum altitude 16:51:38 11° 198° (SSW) 2,905 10.6 12.7°
Drops below altitude 10° 16:53:01 10° 186° (S) 2,966 10.5 12.4°
Sets 16:59:07 0° 150° (SSE) 4,001 10.6 10.9°
